Location: Jackson Park
(37.2862°N, 79.9123°W)
Time: 00:16:01
(UTC+00:00)

Injun/Solrad 3 - All Passes

Search period start: 12 May 2026 00:00
Search period end: 22 May 2026 00:00
Orbit: 868 x 988 km, 66.8° (Epoch: 11 May)

Date Brightness Start Highest point End Pass type
(mag) Time Alt. Az. Time Alt. Az. Time Alt. Az.
12 May - 05:04:18 10° N 05:08:34 18° NE 05:12:48 10° E visible
12 May - 06:49:25 10° NNW 06:55:53 88° WSW 07:02:20 10° SSE visible
12 May - 08:39:01 10° WNW 08:41:27 12° W 08:43:53 10° WSW visible
12 May - 20:09:57 10° SSE 20:14:55 28° ESE 20:20:02 10° NE daylight
12 May - 21:55:27 10° SW 22:01:08 43° NW 22:07:01 10° NNE daylight
13 May - 05:14:43 10° N 05:19:59 26° NE 05:25:13 10° ESE visible
13 May - 07:00:33 10° NW 07:06:52 58° WSW 07:13:08 10° S visible
13 May - 20:20:07 10° S 20:25:44 45° ESE 20:31:33 10° NE daylight
13 May - 22:07:12 10° WSW 22:12:22 29° NW 22:17:44 10° N daylight
14 May - 05:25:22 10° NNW 05:31:17 37° NE 05:37:10 10° ESE visible
14 May - 07:11:54 10° NW 07:17:44 37° WSW 07:23:33 10° S visible
14 May - 20:30:42 10° SSW 20:36:37 71° ESE 20:42:48 10° NNE daylight
14 May - 22:19:21 10° W 22:23:44 20° NW 22:28:14 10° N daylight
15 May - 03:52:44 10° NNE 03:54:30 11° NE 03:56:15 10° NE visible
15 May - 05:36:09 10° NNW 05:42:28 55° ENE 05:48:45 10° SE visible
15 May - 07:23:33 10° NW 07:28:32 24° WSW 07:33:29 10° SSW visible
15 May - 18:58:50 10° SE 19:01:59 15° ESE 19:05:10 10° ENE daylight
15 May - 20:41:38 10° SSW 20:47:38 76° WNW 20:53:51 10° NNE daylight
15 May - 22:32:06 10° WNW 22:35:14 14° NW 22:38:24 10° N daylight
16 May - 04:02:15 10° N 04:06:04 16° NE 04:09:54 10° E visible
16 May - 05:47:05 10° NNW 05:53:33 82° ENE 06:00:00 10° SSE visible
16 May - 07:35:53 10° WNW 07:39:15 15° WSW 07:42:35 10° SW visible
16 May - 19:08:00 10° SSE 19:12:40 24° ESE 19:17:28 10° NE daylight
16 May - 20:52:56 10° SW 20:58:44 49° WNW 21:04:45 10° NNE daylight
17 May - 04:12:33 10° N 04:17:32 23° NE 04:22:29 10° E visible
17 May - 05:58:10 10° NNW 06:04:33 67° WSW 06:10:55 10° SSE visible
17 May - 19:17:59 10° S 19:23:27 39° ESE 19:29:06 10° NE daylight
17 May - 21:04:33 10° WSW 21:09:57 33° NW 21:15:31 10° N daylight
18 May - 04:23:08 10° N 04:28:52 33° NE 04:34:35 10° ESE visible
18 May - 06:09:25 10° NW 06:15:28 43° WSW 06:21:28 10° S visible
18 May - 19:28:26 10° SSW 19:34:19 61° ESE 19:40:25 10° NE daylight
18 May - 21:16:34 10° W 21:21:16 23° NW 21:26:07 10° N daylight
19 May - 04:33:53 10° NNW 04:40:06 48° ENE 04:46:16 10° SE visible
19 May - 06:20:58 10° NW 06:26:17 28° WSW 06:31:34 10° SSW visible
19 May - 17:57:30 10° ESE 17:59:45 12° E 18:02:02 10° ENE daylight
19 May - 19:39:17 10° SSW 19:45:16 86° WNW 19:51:32 10° NNE daylight
19 May - 21:29:05 10° W 21:32:43 16° NW 21:36:26 10° N daylight
20 May - 03:00:15 10° N 03:03:34 14° NE 03:06:53 10° ENE visible
20 May - 04:44:46 10° NNW 04:51:14 72° ENE 04:57:37 10° SE visible
20 May - 06:33:00 10° WNW 06:37:01 17° WSW 06:41:01 10° SW visible
20 May - 18:06:07 10° SSE 18:10:25 21° ESE 18:14:49 10° ENE daylight
20 May - 19:50:26 10° SW 19:56:21 57° WNW 20:02:29 10° NNE daylight
20 May - 21:42:39 10° NW 21:44:17 11° NW 21:45:56 10° NNW daylight
21 May - 03:10:25 10° N 03:15:04 20° NE 03:19:43 10° E visible
21 May - 04:55:48 10° NNW 05:02:15 77° WSW 05:08:39 10° SSE visible
21 May - 18:15:54 10° S 18:21:10 33° ESE 18:26:36 10° NE daylight
21 May - 20:01:56 10° WSW 20:07:31 38° NW 20:13:18 10° NNE daylight
